TimeCST,TemperatureF,Dew PointF,Humidity,Sea Level PressureIn,VisibilityMPH,Wind Direction,Wind SpeedMPH,Gust SpeedMPH,PrecipitationIn,Events,Conditions,WindDirDegrees,DateUTC
12:15 AM,12.0,8.8,87,30.14,10.0,Calm,Calm,-,N/A,,Scattered Clouds,0,2012-12-27 06:15:00
12:35 AM,10.2,7.3,88,30.13,10.0,Calm,Calm,-,N/A,,Scattered Clouds,0,2012-12-27 06:35:00
12:55 AM,10.9,8.4,90,30.12,10.0,Calm,Calm,-,N/A,,Clear,0,2012-12-27 06:55:00
1:15 AM,11.5,9.1,90,30.12,10.0,Calm,Calm,-,N/A,,Clear,0,2012-12-27 07:15:00
1:35 AM,11.3,8.6,89,30.13,10.0,Calm,Calm,-,N/A,,Scattered Clouds,0,2012-12-27 07:35:00
1:55 AM,11.8,9.0,88,30.13,10.0,Calm,Calm,-,N/A,,Scattered Clouds,0,2012-12-27 07:55:00
2:15 AM,11.7,8.6,88,30.13,10.0,Calm,Calm,-,N/A,,Scattered Clouds,0,2012-12-27 08:15:00
2:35 AM,12.2,9.5,89,30.13,10.0,Calm,Calm,-,N/A,,Mostly Cloudy,0,2012-12-27 08:35:00
2:55 AM,14.0,11.3,89,30.13,10.0,Calm,Calm,-,N/A,,Overcast,0,2012-12-27 08:55:00
3:15 AM,14.9,11.8,88,30.12,10.0,Calm,Calm,-,N/A,,Overcast,0,2012-12-27 09:15:00
3:55 AM,15.3,11.8,86,30.10,10.0,Calm,Calm,-,N/A,,Overcast,0,2012-12-27 09:55:00
4:15 AM,14.7,11.7,88,30.10,10.0,Calm,Calm,-,N/A,,Mostly Cloudy,0,2012-12-27 10:15:00
4:55 AM,15.8,12.6,87,30.11,10.0,Calm,Calm,-,N/A,,Overcast,0,2012-12-27 10:55:00
5:15 AM,15.6,12.2,86,30.10,10.0,Calm,Calm,-,N/A,,Overcast,0,2012-12-27 11:15:00
5:35 AM,16.3,12.9,86,30.09,10.0,Calm,Calm,-,N/A,,Overcast,0,2012-12-27 11:35:00
5:55 AM,16.7,13.1,86,30.10,10.0,Calm,Calm,-,N/A,,Overcast,0,2012-12-27 11:55:00
6:15 AM,16.7,13.1,86,30.08,10.0,Calm,Calm,-,N/A,,Overcast,0,2012-12-27 12:15:00
6:35 AM,17.2,13.6,86,30.10,10.0,Calm,Calm,-,N/A,,Overcast,0,2012-12-27 12:35:00
6:55 AM,17.6,14.0,86,30.11,10.0,Calm,Calm,-,N/A,,Overcast,0,2012-12-27 12:55:00
7:15 AM,18.0,14.0,84,30.10,10.0,Calm,Calm,-,N/A,,Overcast,0,2012-12-27 13:15:00
7:35 AM,18.3,14.5,85,30.08,7.0,Calm,Calm,-,N/A,Snow,Light Snow,0,2012-12-27 13:35:00
7:55 AM,18.3,14.7,86,30.08,10.0,ESE,5.8,-,N/A,Snow,Light Snow,110,2012-12-27 13:55:00
8:15 AM,18.1,14.9,87,30.07,7.0,East,8.1,-,N/A,,Overcast,100,2012-12-27 14:15:00
8:35 AM,18.5,14.9,86,30.07,10.0,ESE,3.5,-,N/A,,Overcast,110,2012-12-27 14:35:00
8:55 AM,19.2,15.3,85,30.07,10.0,ESE,9.2,-,N/A,,Overcast,120,2012-12-27 14:55:00
9:15 AM,19.4,15.8,86,30.06,10.0,ESE,12.7,17.3,N/A,,Overcast,120,2012-12-27 15:15:00
9:35 AM,20.1,16.3,85,30.05,5.0,ESE,13.8,20.7,N/A,Snow,Light Snow,120,2012-12-27 15:35:00
9:55 AM,20.7,17.1,86,30.05,2.5,ESE,11.5,18.4,N/A,Snow,Light Snow,120,2012-12-27 15:55:00
10:15 AM,21.4,18.5,89,30.05,5.0,ESE,11.5,17.3,N/A,Snow,Light Snow,120,2012-12-27 16:15:00
10:35 AM,21.9,18.7,87,30.04,7.0,SE,15.0,-,N/A,,Overcast,130,2012-12-27 16:35:00
10:55 AM,22.8,19.4,87,30.04,10.0,SE,13.8,17.3,N/A,,Overcast,130,2012-12-27 16:55:00
11:15 AM,23.4,19.2,84,30.04,10.0,SE,10.4,16.1,N/A,,Overcast,140,2012-12-27 17:15:00
11:35 AM,23.9,19.2,82,30.03,10.0,SE,12.7,18.4,N/A,,Overcast,130,2012-12-27 17:35:00
11:55 AM,23.9,19.2,82,30.01,10.0,SE,12.7,18.4,N/A,,Overcast,130,2012-12-27 17:55:00
12:15 PM,24.6,19.4,81,30.01,10.0,ESE,9.2,-,N/A,,Overcast,120,2012-12-27 18:15:00
12:35 PM,24.6,19.4,81,29.99,10.0,ESE,10.4,-,N/A,,Overcast,120,2012-12-27 18:35:00
12:55 PM,25.2,19.6,79,29.98,10.0,ESE,6.9,-,N/A,,Overcast,120,2012-12-27 18:55:00
1:15 PM,25.3,19.9,80,29.97,10.0,ESE,11.5,-,N/A,,Overcast,110,2012-12-27 19:15:00
1:35 PM,25.3,19.8,79,29.97,10.0,SE,9.2,-,N/A,,Overcast,130,2012-12-27 19:35:00
1:55 PM,25.7,20.1,79,29.96,10.0,Calm,Calm,-,N/A,,Overcast,0,2012-12-27 19:55:00
2:35 PM,25.7,19.8,78,29.94,10.0,ESE,4.6,-,N/A,,Overcast,120,2012-12-27 20:35:00
2:55 PM,25.7,20.1,79,29.95,10.0,ESE,9.2,-,N/A,,Overcast,110,2012-12-27 20:55:00
3:15 PM,25.7,20.1,79,29.96,10.0,ESE,10.4,-,N/A,,Overcast,110,2012-12-27 21:15:00
3:35 PM,26.1,20.5,79,29.96,10.0,Calm,Calm,-,N/A,,Overcast,0,2012-12-27 21:35:00
3:55 PM,26.1,20.3,79,29.96,10.0,Calm,Calm,-,N/A,,Overcast,0,2012-12-27 21:55:00
4:15 PM,26.1,20.3,79,29.96,10.0,East,5.8,-,N/A,,Overcast,90,2012-12-27 22:15:00
4:35 PM,26.1,20.5,79,29.96,10.0,Calm,Calm,-,N/A,,Overcast,0,2012-12-27 22:35:00
4:55 PM,26.1,20.8,81,29.96,10.0,Calm,Calm,-,N/A,,Overcast,0,2012-12-27 22:55:00
5:15 PM,26.1,20.8,81,29.96,10.0,Calm,Calm,-,N/A,,Overcast,0,2012-12-27 23:15:00
5:35 PM,25.9,20.8,81,29.97,10.0,Calm,Calm,-,N/A,,Overcast,0,2012-12-27 23:35:00
5:55 PM,26.1,21.0,81,29.97,10.0,Calm,Calm,-,N/A,,Overcast,0,2012-12-27 23:55:00
6:15 PM,25.7,21.0,82,29.97,10.0,Calm,Calm,-,N/A,,Overcast,0,2012-12-28 00:15:00
6:35 PM,25.7,21.2,83,29.98,10.0,Calm,Calm,-,N/A,,Overcast,0,2012-12-28 00:35:00
7:15 PM,25.7,21.2,83,29.98,10.0,Calm,Calm,-,N/A,,Overcast,0,2012-12-28 01:15:00
7:35 PM,25.7,21.2,83,29.98,10.0,Calm,Calm,-,N/A,,Overcast,0,2012-12-28 01:35:00
7:55 PM,25.7,21.2,83,29.98,10.0,Calm,Calm,-,N/A,,Overcast,0,2012-12-28 01:55:00
8:15 PM,25.7,21.6,84,29.98,10.0,Calm,Calm,-,N/A,,Overcast,0,2012-12-28 02:15:00
8:35 PM,25.7,21.6,84,29.98,10.0,Calm,Calm,-,N/A,,Overcast,0,2012-12-28 02:35:00
8:55 PM,25.9,21.7,84,29.97,10.0,Calm,Calm,-,N/A,,Overcast,0,2012-12-28 02:55:00
9:15 PM,25.7,21.9,86,29.97,10.0,Calm,Calm,-,N/A,,Overcast,0,2012-12-28 03:15:00
9:35 PM,25.7,22.1,86,29.97,10.0,Calm,Calm,-,N/A,,Overcast,0,2012-12-28 03:35:00
9:55 PM,25.7,21.9,86,29.97,10.0,Calm,Calm,-,N/A,,Overcast,0,2012-12-28 03:55:00
10:15 PM,25.7,22.1,86,29.97,10.0,Calm,Calm,-,N/A,,Overcast,0,2012-12-28 04:15:00
10:35 PM,25.7,22.5,88,29.97,10.0,Calm,Calm,-,N/A,,Overcast,0,2012-12-28 04:35:00
10:55 PM,25.7,22.5,88,29.98,10.0,Calm,Calm,-,N/A,,Overcast,0,2012-12-28 04:55:00
11:35 PM,25.7,22.8,89,29.97,10.0,Calm,Calm,-,N/A,,Overcast,0,2012-12-28 05:35:00
11:55 PM,25.7,22.6,88,29.97,10.0,Calm,Calm,-,N/A,,Overcast,0,2012-12-28 05:55:00